Location: Sternwarte ZA, Rosenfeld-Brittheim
(48.2889°N, 8.6789°E)
Time: 22:36:37
(UTC+01:00)

ISS - Pass Details

Date: 10 November 2019
Orbit: 412 x 421 km, 51.6° (Epoch: 15 November)

Event Time Altitude Azimuth Distance (km) Brightness Sun altitude
Exits shadow 05:00:39 37° 121° (ESE) 670 -2.4 -24.0°
Drops below altitude 10° 05:02:49 10° 117° (ESE) 1,501 -0.1 -23.6°
Sets 05:04:55 0° 117° (ESE) 2,361 1.1 -23.3°
